Location: ?????
(37.7324°N, 23.9257°E)
Time: 22:26:26
(UTC+00:00)

Cosmos 2074 Rocket - Pass Details

Date: 29 November 2020
Orbit: 968 x 985 km, 82.9° (Epoch: 18 January)

Event Time Altitude Azimuth Distance (km) Brightness Sun altitude
Rises 03:40:34 0° 186° (S) 3,647 7.1 -19.1°
Reaches altitude 10° 03:43:03 10° 186° (S) 2,702 6.4 -18.6°
Maximum altitude 03:49:16 87° 277° (W) 975 3.9 -17.4°
Drops below altitude 10° 03:55:30 10° 6° (N) 2,716 6.2 -16.2°
Sets 03:58:01 0° 7° (N) 3,668 6.9 -15.8°
